COSMOS 2361

导读 | 星芒AI

COSMOS 2361 是一颗由俄罗斯发射的军用通信卫星,于2006年12月19日由联盟号火箭从普列谢茨克航天发射场送入轨道。该卫星属于俄罗斯的军事通信系统,用于支持国家安全和战略通信需求。其具体任务细节未公开,但类似卫星通常具备抗干扰通信能力,可在多种频段下运行。COSMOS 2361 的轨道高度约为1000公里,运行在近地轨道上。由于其军事属性,该卫星的信息较为有限,仅由俄罗斯国防部管理与监控。

基本信息
目录编号:
25590
目录名称:
COSMOS 2361
国际标识:
1998-076A
轨道中心:
EARTH
卫星名称:
COSMOS 2361
卫星全名:
--
卫星状态:
在轨 (已飞行9853 天)
发射日期:
1998-12-24 UTC
国别 :
俄罗斯(独联体) (CIS)
星等 :
--
轨道信息
数据来源 国际轨道数据 AOE轨道数据
星历时间 2025-12-14T14:34:20+0800
1天前
查看轨道信息
2025-12-14T14:00:00+0800
1天前
查看轨道信息
半长轴 7366.179km 7366.184km
偏心率 0.0030064 0.0031374
轨道倾角 82.934° 82.936°
近地点辐角 261.158° 263.531°
升交点赤经 342.952° 342.972°
平近点角 109.154° 348.953°
近地点 965.898km 964.938km
远地点 1010.19km 1011.16km
周期 104.863分钟 104.863分钟
每日圈数 13.732176 13.732162
详细信息
使用方式:
暂无
2D轨道图
3D轨道图
轨道高度分析图
轨道倾角分析图
轨道综合分析图
查看轨道综合分析图